owner,sensor,date,latitude,longitude,vertical_datum,wind_speed,wind_to_direction,wind_speed_of_gust,qcFlag 
LUMCON,ioos:station:LUMCON:102:1,2017-02-01T00:00:00Z,29.1870,-90.6093,0.0,4.4,166.0,-9999.0,'1111122,1111122,1111122' 
LUMCON,ioos:station:LUMCON:102:1,2017-02-01T00:15:00Z,29.1870,-90.6093,0.0,4.0,166.0,-9999.0,'1111122,1111122,1111122' 
LUMCON,ioos:station:LUMCON:102:1,2017-02-01T00:30:00Z,29.1870,-90.6093,0.0,4.9,164.0,-9999.0,'1111122,1111122,1111122' 
LUMCON,ioos:station:LUMCON:102:1,2017-02-01T00:45:00Z,29.1870,-90.6093,0.0,4.6,164.0,-9999.0,'1111122,1111122,1111122' 
LUMCON,ioos:station:LUMCON:102:1,2017-02-01T01:00:00Z,29.1870,-90.6093,0.0,4.7,165.0,-9999.0,'1111122,1111122,1111122' 
LUMCON,ioos:station:LUMCON:102:1,2017-02-01T01:15:00Z,29.1870,-90.6093,0.0,4.5,166.0,-9999.0,'1111122,1111122,1111122' 
LUMCON,ioos:station:LUMCON:102:1,2017-02-01T01:30:00Z,29.1870,-90.6093,0.0,5.2,162.0,-9999.0,'1111122,1111122,1111122' 
LUMCON,ioos:station:LUMCON:102:1,2017-02-01T01:45:00Z,29.1870,-90.6093,0.0,5.1,162.0,-9999.0,'1111122,1111122,1111122' 
LUMCON,ioos:station:LUMCON:102:1,2017-02-01T02:00:00Z,29.1870,-90.6093,0.0,5.3,159.0,-9999.0,'1111122,1111122,1111122' 
LUMCON,ioos:station:LUMCON:102:1,2017-02-01T02:15:00Z,29.1870,-90.6093,0.0,5.1,157.0,-9999.0,'1111122,1111122,1111122' 
LUMCON,ioos:station:LUMCON:102:1,2017-02-01T02:30:00Z,29.1870,-90.6093,0.0,5.1,156.0,-9999.0,'1111122,1111122,1111122' 
LUMCON,ioos:station:LUMCON:102:1,2017-02-01T02:45:00Z,29.1870,-90.6093,0.0,5.3,155.0,-9999.0,'1111122,1111122,1111122' 
LUMCON,ioos:station:LUMCON:102:1,2017-02-01T03:00:00Z,29.1870,-90.6093,0.0,5.1,157.0,-9999.0,'1111122,1111122,1111122' 
LUMCON,ioos:station:LUMCON:102:1,2017-02-01T03:15:00Z,29.1870,-90.6093,0.0,5.5,156.0,-9999.0,'1111122,1111122,1111122' 
LUMCON,ioos:station:LUMCON:102:1,2017-02-01T03:30:00Z,29.1870,-90.6093,0.0,5.5,155.0,-9999.0,'1111122,1111122,1111122' 
LUMCON,ioos:station:LUMCON:102:1,2017-02-01T03:45:00Z,29.1870,-90.6093,0.0,5.4,154.0,-9999.0,'1111122,1111122,1111122' 
LUMCON,ioos:station:LUMCON:102:1,2017-02-01T04:00:00Z,29.1870,-90.6093,0.0,5.2,160.0,-9999.0,'1111122,1111122,1111122' 
LUMCON,ioos:station:LUMCON:102:1,2017-02-01T04:15:00Z,29.1870,-90.6093,0.0,4.9,161.0,-9999.0,'1111122,1111122,1111122' 
LUMCON,ioos:station:LUMCON:102:1,2017-02-01T04:30:00Z,29.1870,-90.6093,0.0,4.7,163.0,-9999.0,'1111122,1111122,1111122' 
LUMCON,ioos:station:LUMCON:102:1,2017-02-01T04:45:00Z,29.1870,-90.6093,0.0,4.5,161.0,-9999.0,'1111122,1111122,1111122' 
LUMCON,ioos:station:LUMCON:102:1,2017-02-01T05:00:00Z,29.1870,-90.6093,0.0,4.5,167.0,-9999.0,'1111122,1111122,1111122' 
LUMCON,ioos:station:LUMCON:102:1,2017-02-01T05:15:00Z,29.1870,-90.6093,0.0,5.3,169.0,-9999.0,'1111122,1111122,1111122' 
LUMCON,ioos:station:LUMCON:102:1,2017-02-01T05:30:00Z,29.1870,-90.6093,0.0,5.7,170.0,-9999.0,'1111122,1111122,1111122' 
LUMCON,ioos:station:LUMCON:102:1,2017-02-01T05:45:00Z,29.1870,-90.6093,0.0,5.8,169.0,-9999.0,'1111122,1111122,1111122' 
LUMCON,ioos:station:LUMCON:102:1,2017-02-01T06:00:00Z,29.1870,-90.6093,0.0,5.3,166.0,-9999.0,'1111122,1111122,1111122' 
LUMCON,ioos:station:LUMCON:102:1,2017-02-01T06:15:00Z,29.1870,-90.6093,0.0,5.2,167.0,-9999.0,'1111122,1111122,1111122' 
LUMCON,ioos:station:LUMCON:102:1,2017-02-01T06:30:00Z,29.1870,-90.6093,0.0,5.0,166.0,-9999.0,'1111122,1111122,1111122' 
LUMCON,ioos:station:LUMCON:102:1,2017-02-01T06:45:00Z,29.1870,-90.6093,0.0,5.0,174.0,-9999.0,'1111122,1111122,1111122' 
LUMCON,ioos:station:LUMCON:102:1,2017-02-01T07:00:00Z,29.1870,-90.6093,0.0,5.2,174.0,-9999.0,'1111122,1111122,1111122' 
LUMCON,ioos:station:LUMCON:102:1,2017-02-01T07:15:00Z,29.1870,-90.6093,0.0,4.8,176.0,-9999.0,'1111122,1111122,1111122' 
LUMCON,ioos:station:LUMCON:102:1,2017-02-01T07:30:00Z,29.1870,-90.6093,0.0,4.1,180.0,-9999.0,'1111122,1111122,1111122' 
LUMCON,ioos:station:LUMCON:102:1,2017-02-01T07:45:00Z,29.1870,-90.6093,0.0,3.8,181.0,-9999.0,'1111122,1111122,1111122' 
LUMCON,ioos:station:LUMCON:102:1,2017-02-01T08:00:00Z,29.1870,-90.6093,0.0,3.9,181.0,-9999.0,'1111122,1111122,1111122' 
LUMCON,ioos:station:LUMCON:102:1,2017-02-01T08:15:00Z,29.1870,-90.6093,0.0,3.6,183.0,-9999.0,'1111122,1111122,1111122' 
LUMCON,ioos:station:LUMCON:102:1,2017-02-01T08:30:00Z,29.1870,-90.6093,0.0,3.5,184.0,-9999.0,'1111122,1111122,1111122' 
LUMCON,ioos:station:LUMCON:102:1,2017-02-01T08:45:00Z,29.1870,-90.6093,0.0,4.2,178.0,-9999.0,'1111122,1111122,1111122' 
LUMCON,ioos:station:LUMCON:102:1,2017-02-01T09:00:00Z,29.1870,-90.6093,0.0,4.3,173.0,-9999.0,'1111122,1111122,1111122' 
LUMCON,ioos:station:LUMCON:102:1,2017-02-01T09:15:00Z,29.1870,-90.6093,0.0,4.0,179.0,-9999.0,'1111122,1111122,1111122' 
LUMCON,ioos:station:LUMCON:102:1,2017-02-01T09:30:00Z,29.1870,-90.6093,0.0,3.4,179.0,-9999.0,'1111122,1111122,1111122' 
LUMCON,ioos:station:LUMCON:102:1,2017-02-01T09:45:00Z,29.1870,-90.6093,0.0,3.5,175.0,-9999.0,'1111122,1111122,1111122' 
LUMCON,ioos:station:LUMCON:102:1,2017-02-01T10:00:00Z,29.1870,-90.6093,0.0,3.7,169.0,-9999.0,'1111122,1111122,1111122' 
LUMCON,ioos:station:LUMCON:102:1,2017-02-01T10:15:00Z,29.1870,-90.6093,0.0,3.3,163.0,-9999.0,'1111122,1111122,1111122' 
LUMCON,ioos:station:LUMCON:102:1,2017-02-01T10:30:00Z,29.1870,-90.6093,0.0,3.5,155.0,-9999.0,'1111122,1111122,1111122' 
LUMCON,ioos:station:LUMCON:102:1,2017-02-01T10:45:00Z,29.1870,-90.6093,0.0,2.9,155.0,-9999.0,'1111122,1111122,1111122' 
LUMCON,ioos:station:LUMCON:102:1,2017-02-01T11:00:00Z,29.1870,-90.6093,0.0,3.2,162.0,-9999.0,'1111122,1111122,1111122' 
LUMCON,ioos:station:LUMCON:102:1,2017-02-01T11:15:00Z,29.1870,-90.6093,0.0,2.7,156.0,-9999.0,'1111122,1111122,1111122' 
LUMCON,ioos:station:LUMCON:102:1,2017-02-01T11:30:00Z,29.1870,-90.6093,0.0,3.2,162.0,-9999.0,'1111122,1111122,1111122' 
LUMCON,ioos:station:LUMCON:102:1,2017-02-01T11:45:00Z,29.1870,-90.6093,0.0,3.9,163.0,-9999.0,'1111122,1111122,1111122' 
LUMCON,ioos:station:LUMCON:102:1,2017-02-01T12:00:00Z,29.1870,-90.6093,0.0,3.2,155.0,-9999.0,'1111122,1111122,1111122' 
LUMCON,ioos:station:LUMCON:102:1,2017-02-01T12:15:00Z,29.1870,-90.6093,0.0,4.3,161.0,-9999.0,'1111122,1111122,1111122' 
LUMCON,ioos:station:LUMCON:102:1,2017-02-01T12:30:00Z,29.1870,-90.6093,0.0,4.3,159.0,-9999.0,'1111122,1111122,1111122' 
LUMCON,ioos:station:LUMCON:102:1,2017-02-01T12:45:00Z,29.1870,-90.6093,0.0,4.1,155.0,-9999.0,'1111122,1111122,1111122' 
LUMCON,ioos:station:LUMCON:102:1,2017-02-01T13:00:00Z,29.1870,-90.6093,0.0,4.0,152.0,-9999.0,'1111122,1111122,1111122' 
LUMCON,ioos:station:LUMCON:102:1,2017-02-01T13:15:00Z,29.1870,-90.6093,0.0,4.0,160.0,-9999.0,'1111122,1111122,1111122' 
LUMCON,ioos:station:LUMCON:102:1,2017-02-01T13:30:00Z,29.1870,-90.6093,0.0,4.7,159.0,-9999.0,'1111122,1111122,1111122' 
LUMCON,ioos:station:LUMCON:102:1,2017-02-01T13:45:00Z,29.1870,-90.6093,0.0,4.5,162.0,-9999.0,'1111122,1111122,1111122' 
LUMCON,ioos:station:LUMCON:102:1,2017-02-01T14:00:00Z,29.1870,-90.6093,0.0,4.5,161.0,-9999.0,'1111122,1111122,1111122' 
LUMCON,ioos:station:LUMCON:102:1,2017-02-01T14:15:00Z,29.1870,-90.6093,0.0,4.3,158.0,-9999.0,'1111122,1111122,1111122' 
LUMCON,ioos:station:LUMCON:102:1,2017-02-01T14:30:00Z,29.1870,-90.6093,0.0,3.9,165.0,-9999.0,'1111122,1111122,1111122' 
LUMCON,ioos:station:LUMCON:102:1,2017-02-01T14:45:00Z,29.1870,-90.6093,0.0,4.0,161.0,-9999.0,'1111122,1111122,1111122' 
LUMCON,ioos:station:LUMCON:102:1,2017-02-01T15:00:00Z,29.1870,-90.6093,0.0,3.7,160.0,-9999.0,'1111122,1111122,1111122' 
LUMCON,ioos:station:LUMCON:102:1,2017-02-01T15:15:00Z,29.1870,-90.6093,0.0,3.9,163.0,-9999.0,'1111122,1111122,1111122' 
LUMCON,ioos:station:LUMCON:102:1,2017-02-01T15:30:00Z,29.1870,-90.6093,0.0,4.0,168.0,-9999.0,'1111122,1111122,1111122' 
LUMCON,ioos:station:LUMCON:102:1,2017-02-01T15:45:00Z,29.1870,-90.6093,0.0,4.1,167.0,-9999.0,'1111122,1111122,1111122' 
LUMCON,ioos:station:LUMCON:102:1,2017-02-01T16:00:00Z,29.1870,-90.6093,0.0,4.1,168.0,-9999.0,'1111122,1111122,1111122' 
LUMCON,ioos:station:LUMCON:102:1,2017-02-01T16:15:00Z,29.1870,-90.6093,0.0,4.1,171.0,-9999.0,'1111122,1111122,1111122' 
LUMCON,ioos:station:LUMCON:102:1,2017-02-01T16:30:00Z,29.1870,-90.6093,0.0,4.4,173.0,-9999.0,'1111122,1111122,1111122' 
LUMCON,ioos:station:LUMCON:102:1,2017-02-01T16:45:00Z,29.1870,-90.6093,0.0,4.0,167.0,-9999.0,'1111122,1111122,1111122' 
LUMCON,ioos:station:LUMCON:102:1,2017-02-01T17:00:00Z,29.1870,-90.6093,0.0,4.1,169.0,-9999.0,'1111122,1111122,1111122' 
LUMCON,ioos:station:LUMCON:102:1,2017-02-01T17:15:00Z,29.1870,-90.6093,0.0,3.6,171.0,-9999.0,'1111122,1111122,1111122' 
LUMCON,ioos:station:LUMCON:102:1,2017-02-01T17:30:00Z,29.1870,-90.6093,0.0,3.8,174.0,-9999.0,'1111122,1111122,1111122' 
LUMCON,ioos:station:LUMCON:102:1,2017-02-01T17:45:00Z,29.1870,-90.6093,0.0,4.1,176.0,-9999.0,'1111122,1111122,1111122' 
LUMCON,ioos:station:LUMCON:102:1,2017-02-01T18:00:00Z,29.1870,-90.6093,0.0,4.2,175.0,-9999.0,'1111122,1111122,1111122' 
LUMCON,ioos:station:LUMCON:102:1,2017-02-01T18:15:00Z,29.1870,-90.6093,0.0,4.7,177.0,-9999.0,'1111122,1111122,1111122' 
LUMCON,ioos:station:LUMCON:102:1,2017-02-01T18:30:00Z,29.1870,-90.6093,0.0,4.3,178.0,-9999.0,'1111122,1111122,1111122' 
LUMCON,ioos:station:LUMCON:102:1,2017-02-01T18:45:00Z,29.1870,-90.6093,0.0,4.3,175.0,-9999.0,'1111122,1111122,1111122' 
LUMCON,ioos:station:LUMCON:102:1,2017-02-01T19:00:00Z,29.1870,-90.6093,0.0,4.2,183.0,-9999.0,'1111122,1111122,1111122' 
LUMCON,ioos:station:LUMCON:102:1,2017-02-01T19:15:00Z,29.1870,-90.6093,0.0,4.4,180.0,-9999.0,'1111122,1111122,1111122' 
LUMCON,ioos:station:LUMCON:102:1,2017-02-01T19:30:00Z,29.1870,-90.6093,0.0,4.3,179.0,-9999.0,'1111122,1111122,1111122' 
LUMCON,ioos:station:LUMCON:102:1,2017-02-01T19:45:00Z,29.1870,-90.6093,0.0,4.4,181.0,-9999.0,'1111122,1111122,1111122' 
LUMCON,ioos:station:LUMCON:102:1,2017-02-01T20:00:00Z,29.1870,-90.6093,0.0,4.4,177.0,-9999.0,'1111122,1111122,1111122' 
LUMCON,ioos:station:LUMCON:102:1,2017-02-01T20:15:00Z,29.1870,-90.6093,0.0,4.4,179.0,-9999.0,'1111122,1111122,1111122' 
LUMCON,ioos:station:LUMCON:102:1,2017-02-01T20:30:00Z,29.1870,-90.6093,0.0,4.5,176.0,-9999.0,'1111122,1111122,1111122' 
LUMCON,ioos:station:LUMCON:102:1,2017-02-01T20:45:00Z,29.1870,-90.6093,0.0,4.7,175.0,-9999.0,'1111122,1111122,1111122' 
LUMCON,ioos:station:LUMCON:102:1,2017-02-01T21:00:00Z,29.1870,-90.6093,0.0,4.9,174.0,-9999.0,'1111122,1111122,1111122' 
LUMCON,ioos:station:LUMCON:102:1,2017-02-01T21:15:00Z,29.1870,-90.6093,0.0,4.2,168.0,-9999.0,'1111122,1111122,1111122' 
LUMCON,ioos:station:LUMCON:102:1,2017-02-01T21:30:00Z,29.1870,-90.6093,0.0,4.4,169.0,-9999.0,'1111122,1111122,1111122' 
LUMCON,ioos:station:LUMCON:102:1,2017-02-01T21:45:00Z,29.1870,-90.6093,0.0,4.6,172.0,-9999.0,'1111122,1111122,1111122' 
LUMCON,ioos:station:LUMCON:102:1,2017-02-01T22:00:00Z,29.1870,-90.6093,0.0,4.5,169.0,-9999.0,'1111122,1111122,1111122' 
LUMCON,ioos:station:LUMCON:102:1,2017-02-01T22:15:00Z,29.1870,-90.6093,0.0,4.5,172.0,-9999.0,'1111122,1111122,1111122' 
LUMCON,ioos:station:LUMCON:102:1,2017-02-01T22:30:00Z,29.1870,-90.6093,0.0,4.3,175.0,-9999.0,'1111122,1111122,1111122' 
LUMCON,ioos:station:LUMCON:102:1,2017-02-01T22:45:00Z,29.1870,-90.6093,0.0,3.9,169.0,-9999.0,'1111122,1111122,1111122' 
LUMCON,ioos:station:LUMCON:102:1,2017-02-01T23:00:00Z,29.1870,-90.6093,0.0,3.8,171.0,-9999.0,'1111122,1111122,1111122' 
LUMCON,ioos:station:LUMCON:102:1,2017-02-01T23:15:00Z,29.1870,-90.6093,0.0,3.6,164.0,-9999.0,'1111122,1111122,1111122' 
LUMCON,ioos:station:LUMCON:102:1,2017-02-01T23:30:00Z,29.1870,-90.6093,0.0,3.3,158.0,-9999.0,'1111122,1111122,1111122' 
LUMCON,ioos:station:LUMCON:102:1,2017-02-01T23:45:00Z,29.1870,-90.6093,0.0,3.4,155.0,-9999.0,'1111122,1111122,1111122' 
LUMCON,ioos:station:LUMCON:102:1,2017-02-02T00:00:00Z,29.1870,-90.6093,0.0,3.5,158.0,-9999.0,'1111122,1111122,1111122' 
LUMCON,ioos:station:LUMCON:102:1,2017-02-02T00:15:00Z,29.1870,-90.6093,0.0,3.4,149.0,-9999.0,'1111122,1111122,1111122' 
LUMCON,ioos:station:LUMCON:102:1,2017-02-02T00:30:00Z,29.1870,-90.6093,0.0,3.6,153.0,-9999.0,'1111122,1111122,1111122' 
LUMCON,ioos:station:LUMCON:102:1,2017-02-02T00:45:00Z,29.1870,-90.6093,0.0,3.7,150.0,-9999.0,'1111122,1111122,1111122' 
LUMCON,ioos:station:LUMCON:102:1,2017-02-02T01:00:00Z,29.1870,-90.6093,0.0,3.7,151.0,-9999.0,'1111122,1111122,1111122' 
LUMCON,ioos:station:LUMCON:102:1,2017-02-02T01:15:00Z,29.1870,-90.6093,0.0,3.4,150.0,-9999.0,'1111122,1111122,1111122' 
LUMCON,ioos:station:LUMCON:102:1,2017-02-02T01:30:00Z,29.1870,-90.6093,0.0,3.4,154.0,-9999.0,'1111122,1111122,1111122' 
LUMCON,ioos:station:LUMCON:102:1,2017-02-02T01:45:00Z,29.1870,-90.6093,0.0,3.4,153.0,-9999.0,'1111122,1111122,1111122' 
LUMCON,ioos:station:LUMCON:102:1,2017-02-02T02:00:00Z,29.1870,-90.6093,0.0,3.5,156.0,-9999.0,'1111122,1111122,1111122' 
LUMCON,ioos:station:LUMCON:102:1,2017-02-02T02:15:00Z,29.1870,-90.6093,0.0,3.5,152.0,-9999.0,'1111122,1111122,1111122' 
LUMCON,ioos:station:LUMCON:102:1,2017-02-02T02:30:00Z,29.1870,-90.6093,0.0,3.2,152.0,-9999.0,'1111122,1111122,1111122' 
LUMCON,ioos:station:LUMCON:102:1,2017-02-02T02:45:00Z,29.1870,-90.6093,0.0,3.3,148.0,-9999.0,'1111122,1111122,1111122' 
LUMCON,ioos:station:LUMCON:102:1,2017-02-02T03:00:00Z,29.1870,-90.6093,0.0,2.9,154.0,-9999.0,'1111122,1111122,1111122' 
LUMCON,ioos:station:LUMCON:102:1,2017-02-02T03:15:00Z,29.1870,-90.6093,0.0,3.1,145.0,-9999.0,'1111122,1111122,1111122' 
LUMCON,ioos:station:LUMCON:102:1,2017-02-02T03:30:00Z,29.1870,-90.6093,0.0,2.8,146.0,-9999.0,'1111122,1111122,1111122' 
LUMCON,ioos:station:LUMCON:102:1,2017-02-02T03:45:00Z,29.1870,-90.6093,0.0,3.2,151.0,-9999.0,'1111122,1111122,1111122' 
LUMCON,ioos:station:LUMCON:102:1,2017-02-02T04:00:00Z,29.1870,-90.6093,0.0,3.1,142.0,-9999.0,'1111122,1111122,1111122' 
LUMCON,ioos:station:LUMCON:102:1,2017-02-02T04:15:00Z,29.1870,-90.6093,0.0,3.5,148.0,-9999.0,'1111122,1111122,1111122' 
LUMCON,ioos:station:LUMCON:102:1,2017-02-02T04:30:00Z,29.1870,-90.6093,0.0,3.4,140.0,-9999.0,'1111122,1111122,1111122' 
LUMCON,ioos:station:LUMCON:102:1,2017-02-02T04:45:00Z,29.1870,-90.6093,0.0,4.0,146.0,-9999.0,'1111122,1111122,1111122' 
LUMCON,ioos:station:LUMCON:102:1,2017-02-02T05:00:00Z,29.1870,-90.6093,0.0,3.5,143.0,-9999.0,'1111122,1111122,1111122' 
LUMCON,ioos:station:LUMCON:102:1,2017-02-02T05:15:00Z,29.1870,-90.6093,0.0,3.3,142.0,-9999.0,'1111122,1111122,1111122' 
LUMCON,ioos:station:LUMCON:102:1,2017-02-02T05:30:00Z,29.1870,-90.6093,0.0,2.9,148.0,-9999.0,'1111122,1111122,1111122' 
LUMCON,ioos:station:LUMCON:102:1,2017-02-02T05:45:00Z,29.1870,-90.6093,0.0,2.8,148.0,-9999.0,'1111122,1111122,1111122' 
LUMCON,ioos:station:LUMCON:102:1,2017-02-02T06:00:00Z,29.1870,-90.6093,0.0,2.7,148.0,-9999.0,'1111122,1111122,1111122' 
LUMCON,ioos:station:LUMCON:102:1,2017-02-02T06:15:00Z,29.1870,-90.6093,0.0,3.2,146.0,-9999.0,'1111122,1111122,1111122' 
LUMCON,ioos:station:LUMCON:102:1,2017-02-02T06:30:00Z,29.1870,-90.6093,0.0,3.5,141.0,-9999.0,'1111122,1111122,1111122' 
LUMCON,ioos:station:LUMCON:102:1,2017-02-02T06:45:00Z,29.1870,-90.6093,0.0,3.5,142.0,-9999.0,'1111122,1111122,1111122' 
LUMCON,ioos:station:LUMCON:102:1,2017-02-02T07:00:00Z,29.1870,-90.6093,0.0,3.2,145.0,-9999.0,'1111122,1111122,1111122' 
LUMCON,ioos:station:LUMCON:102:1,2017-02-02T07:15:00Z,29.1870,-90.6093,0.0,3.2,138.0,-9999.0,'1111122,1111122,1111122' 
LUMCON,ioos:station:LUMCON:102:1,2017-02-02T07:30:00Z,29.1870,-90.6093,0.0,3.3,134.0,-9999.0,'1111122,1111122,1111122' 
LUMCON,ioos:station:LUMCON:102:1,2017-02-02T07:45:00Z,29.1870,-90.6093,0.0,3.5,130.0,-9999.0,'1111122,1111122,1111122' 
LUMCON,ioos:station:LUMCON:102:1,2017-02-02T08:00:00Z,29.1870,-90.6093,0.0,3.0,121.0,-9999.0,'1111122,1111122,1111122' 
LUMCON,ioos:station:LUMCON:102:1,2017-02-02T08:15:00Z,29.1870,-90.6093,0.0,2.9,121.0,-9999.0,'1111122,1111122,1111122' 
LUMCON,ioos:station:LUMCON:102:1,2017-02-02T08:30:00Z,29.1870,-90.6093,0.0,2.8,119.0,-9999.0,'1111122,1111122,1111122' 
LUMCON,ioos:station:LUMCON:102:1,2017-02-02T08:45:00Z,29.1870,-90.6093,0.0,2.9,120.0,-9999.0,'1111122,1111122,1111122' 
LUMCON,ioos:station:LUMCON:102:1,2017-02-02T09:00:00Z,29.1870,-90.6093,0.0,2.8,126.0,-9999.0,'1111122,1111122,1111122' 
LUMCON,ioos:station:LUMCON:102:1,2017-02-02T09:15:00Z,29.1870,-90.6093,0.0,2.8,119.0,-9999.0,'1111122,1111122,1111122' 
LUMCON,ioos:station:LUMCON:102:1,2017-02-02T09:30:00Z,29.1870,-90.6093,0.0,2.7,118.0,-9999.0,'1111122,1111122,1111122' 
LUMCON,ioos:station:LUMCON:102:1,2017-02-02T09:45:00Z,29.1870,-90.6093,0.0,3.1,114.0,-9999.0,'1111122,1111122,1111122' 
LUMCON,ioos:station:LUMCON:102:1,2017-02-02T10:00:00Z,29.1870,-90.6093,0.0,3.1,104.0,-9999.0,'1111122,1111122,1111122' 
LUMCON,ioos:station:LUMCON:102:1,2017-02-02T10:15:00Z,29.1870,-90.6093,0.0,3.3,104.0,-9999.0,'1111122,1111122,1111122' 
LUMCON,ioos:station:LUMCON:102:1,2017-02-02T10:30:00Z,29.1870,-90.6093,0.0,3.3,109.0,-9999.0,'1111122,1111122,1111122' 
LUMCON,ioos:station:LUMCON:102:1,2017-02-02T10:45:00Z,29.1870,-90.6093,0.0,3.2,107.0,-9999.0,'1111122,1111122,1111122' 
LUMCON,ioos:station:LUMCON:102:1,2017-02-02T11:00:00Z,29.1870,-90.6093,0.0,3.2,111.0,-9999.0,'1111122,1111122,1111122' 
LUMCON,ioos:station:LUMCON:102:1,2017-02-02T11:15:00Z,29.1870,-90.6093,0.0,3.4,99.0,-9999.0,'1111122,1111122,1111122' 
LUMCON,ioos:station:LUMCON:102:1,2017-02-02T11:30:00Z,29.1870,-90.6093,0.0,3.2,95.0,-9999.0,'1111122,1111122,1111122' 
LUMCON,ioos:station:LUMCON:102:1,2017-02-02T11:45:00Z,29.1870,-90.6093,0.0,3.3,96.0,-9999.0,'1111122,1111122,1111122' 
LUMCON,ioos:station:LUMCON:102:1,2017-02-02T12:00:00Z,29.1870,-90.6093,0.0,3.3,102.0,-9999.0,'1111122,1111122,1111122' 
LUMCON,ioos:station:LUMCON:102:1,2017-02-02T12:15:00Z,29.1870,-90.6093,0.0,3.4,107.0,-9999.0,'1111122,1111122,1111122' 
LUMCON,ioos:station:LUMCON:102:1,2017-02-02T12:30:00Z,29.1870,-90.6093,0.0,3.2,109.0,-9999.0,'1111122,1111122,1111122' 
LUMCON,ioos:station:LUMCON:102:1,2017-02-02T12:45:00Z,29.1870,-90.6093,0.0,3.3,111.0,-9999.0,'1111122,1111122,1111122' 
LUMCON,ioos:station:LUMCON:102:1,2017-02-02T13:00:00Z,29.1870,-90.6093,0.0,3.4,111.0,-9999.0,'1111122,1111122,1111122' 
LUMCON,ioos:station:LUMCON:102:1,2017-02-02T13:15:00Z,29.1870,-90.6093,0.0,3.6,116.0,-9999.0,'1111122,1111122,1111122' 
LUMCON,ioos:station:LUMCON:102:1,2017-02-02T13:30:00Z,29.1870,-90.6093,0.0,3.3,107.0,-9999.0,'1111122,1111122,1111122' 
LUMCON,ioos:station:LUMCON:102:1,2017-02-02T13:45:00Z,29.1870,-90.6093,0.0,3.7,108.0,-9999.0,'1111122,1111122,1111122' 
LUMCON,ioos:station:LUMCON:102:1,2017-02-02T14:00:00Z,29.1870,-90.6093,0.0,3.4,115.0,-9999.0,'1111122,1111122,1111122' 
LUMCON,ioos:station:LUMCON:102:1,2017-02-02T14:15:00Z,29.1870,-90.6093,0.0,3.1,116.0,-9999.0,'1111122,1111122,1111122' 
LUMCON,ioos:station:LUMCON:102:1,2017-02-02T14:30:00Z,29.1870,-90.6093,0.0,2.9,119.0,-9999.0,'1111122,1111122,1111122' 
LUMCON,ioos:station:LUMCON:102:1,2017-02-02T14:45:00Z,29.1870,-90.6093,0.0,2.8,118.0,-9999.0,'1111122,1111122,1111122' 
LUMCON,ioos:station:LUMCON:102:1,2017-02-02T15:00:00Z,29.1870,-90.6093,0.0,2.7,109.0,-9999.0,'1111122,1111122,1111122' 
LUMCON,ioos:station:LUMCON:102:1,2017-02-02T15:15:00Z,29.1870,-90.6093,0.0,2.8,108.0,-9999.0,'1111122,1111122,1111122' 
LUMCON,ioos:station:LUMCON:102:1,2017-02-02T15:30:00Z,29.1870,-90.6093,0.0,2.8,105.0,-9999.0,'1111122,1111122,1111122' 
LUMCON,ioos:station:LUMCON:102:1,2017-02-02T15:45:00Z,29.1870,-90.6093,0.0,2.4,97.0,-9999.0,'1111122,1111122,1111122' 
LUMCON,ioos:station:LUMCON:102:1,2017-02-02T16:00:00Z,29.1870,-90.6093,0.0,2.5,91.0,-9999.0,'1111122,1111122,1111122' 
LUMCON,ioos:station:LUMCON:102:1,2017-02-02T16:15:00Z,29.1870,-90.6093,0.0,2.9,79.0,-9999.0,'1111122,1111122,1111122' 
LUMCON,ioos:station:LUMCON:102:1,2017-02-02T16:30:00Z,29.1870,-90.6093,0.0,2.8,78.0,-9999.0,'1111122,1111122,1111122' 
LUMCON,ioos:station:LUMCON:102:1,2017-02-02T16:45:00Z,29.1870,-90.6093,0.0,3.4,79.0,-9999.0,'1111122,1111122,1111122' 
LUMCON,ioos:station:LUMCON:102:1,2017-02-02T17:00:00Z,29.1870,-90.6093,0.0,2.6,95.0,-9999.0,'1111122,1111122,1111122' 
LUMCON,ioos:station:LUMCON:102:1,2017-02-02T17:15:00Z,29.1870,-90.6093,0.0,2.0,108.0,-9999.0,'1111122,1111122,1111122' 
LUMCON,ioos:station:LUMCON:102:1,2017-02-02T17:30:00Z,29.1870,-90.6093,0.0,1.8,107.0,-9999.0,'1111122,1111122,1111122' 
LUMCON,ioos:station:LUMCON:102:1,2017-02-02T17:45:00Z,29.1870,-90.6093,0.0,2.7,120.0,-9999.0,'1111122,1111122,1111122' 
LUMCON,ioos:station:LUMCON:102:1,2017-02-02T18:00:00Z,29.1870,-90.6093,0.0,2.8,121.0,-9999.0,'1111122,1111122,1111122' 
LUMCON,ioos:station:LUMCON:102:1,2017-02-02T18:15:00Z,29.1870,-90.6093,0.0,3.1,130.0,-9999.0,'1111122,1111122,1111122' 
LUMCON,ioos:station:LUMCON:102:1,2017-02-02T18:30:00Z,29.1870,-90.6093,0.0,3.2,126.0,-9999.0,'1111122,1111122,1111122' 
LUMCON,ioos:station:LUMCON:102:1,2017-02-02T18:45:00Z,29.1870,-90.6093,0.0,2.8,132.0,-9999.0,'1111122,1111122,1111122' 
LUMCON,ioos:station:LUMCON:102:1,2017-02-02T19:00:00Z,29.1870,-90.6093,0.0,3.0,140.0,-9999.0,'1111122,1111122,1111122' 
LUMCON,ioos:station:LUMCON:102:1,2017-02-02T19:15:00Z,29.1870,-90.6093,0.0,3.1,151.0,-9999.0,'1111122,1111122,1111122' 
LUMCON,ioos:station:LUMCON:102:1,2017-02-02T19:30:00Z,29.1870,-90.6093,0.0,3.3,160.0,-9999.0,'1111122,1111122,1111122' 
LUMCON,ioos:station:LUMCON:102:1,2017-02-02T19:45:00Z,29.1870,-90.6093,0.0,3.8,164.0,-9999.0,'1111122,1111122,1111122' 
LUMCON,ioos:station:LUMCON:102:1,2017-02-02T20:00:00Z,29.1870,-90.6093,0.0,3.7,161.0,-9999.0,'1111122,1111122,1111122' 
LUMCON,ioos:station:LUMCON:102:1,2017-02-02T20:15:00Z,29.1870,-90.6093,0.0,3.4,159.0,-9999.0,'1111122,1111122,1111122' 
LUMCON,ioos:station:LUMCON:102:1,2017-02-02T20:30:00Z,29.1870,-90.6093,0.0,3.0,154.0,-9999.0,'1111122,1111122,1111122' 
LUMCON,ioos:station:LUMCON:102:1,2017-02-02T20:45:00Z,29.1870,-90.6093,0.0,3.7,156.0,-9999.0,'1111122,1111122,1111122' 
LUMCON,ioos:station:LUMCON:102:1,2017-02-02T21:00:00Z,29.1870,-90.6093,0.0,3.8,156.0,-9999.0,'1111122,1111122,1111122' 
LUMCON,ioos:station:LUMCON:102:1,2017-02-02T21:15:00Z,29.1870,-90.6093,0.0,4.2,148.0,-9999.0,'1111122,1111122,1111122' 
LUMCON,ioos:station:LUMCON:102:1,2017-02-02T21:30:00Z,29.1870,-90.6093,0.0,2.9,129.0,-9999.0,'1111122,1111122,1111122' 
LUMCON,ioos:station:LUMCON:102:1,2017-02-02T21:45:00Z,29.1870,-90.6093,0.0,2.2,142.0,-9999.0,'1111122,1111122,1111122' 
LUMCON,ioos:station:LUMCON:102:1,2017-02-02T22:00:00Z,29.1870,-90.6093,0.0,2.4,140.0,-9999.0,'1111122,1111122,1111122' 
LUMCON,ioos:station:LUMCON:102:1,2017-02-02T22:15:00Z,29.1870,-90.6093,0.0,2.8,152.0,-9999.0,'1111122,1111122,1111122' 
LUMCON,ioos:station:LUMCON:102:1,2017-02-02T22:30:00Z,29.1870,-90.6093,0.0,2.7,162.0,-9999.0,'1111122,1111122,1111122' 
LUMCON,ioos:station:LUMCON:102:1,2017-02-02T22:45:00Z,29.1870,-90.6093,0.0,2.8,151.0,-9999.0,'1111122,1111122,1111122' 
LUMCON,ioos:station:LUMCON:102:1,2017-02-02T23:00:00Z,29.1870,-90.6093,0.0,3.0,152.0,-9999.0,'1111122,1111122,1111122' 
LUMCON,ioos:station:LUMCON:102:1,2017-02-02T23:15:00Z,29.1870,-90.6093,0.0,3.0,135.0,-9999.0,'1111122,1111122,1111122' 
LUMCON,ioos:station:LUMCON:102:1,2017-02-02T23:30:00Z,29.1870,-90.6093,0.0,3.1,149.0,-9999.0,'1111122,1111122,1111122' 
LUMCON,ioos:station:LUMCON:102:1,2017-02-02T23:45:00Z,29.1870,-90.6093,0.0,2.3,147.0,-9999.0,'1111122,1111122,1111122' 
LUMCON,ioos:station:LUMCON:102:1,2017-02-03T00:00:00Z,29.1870,-90.6093,0.0,2.4,153.0,-9999.0,'1111122,1111122,1111122' 
LUMCON,ioos:station:LUMCON:102:1,2017-02-03T00:15:00Z,29.1870,-90.6093,0.0,3.1,146.0,-9999.0,'1111122,1111122,1111122' 
LUMCON,ioos:station:LUMCON:102:1,2017-02-03T00:30:00Z,29.1870,-90.6093,0.0,3.7,153.0,-9999.0,'1111122,1111122,1111122' 
LUMCON,ioos:station:LUMCON:102:1,2017-02-03T00:45:00Z,29.1870,-90.6093,0.0,3.6,152.0,-9999.0,'1111122,1111122,1111122' 
LUMCON,ioos:station:LUMCON:102:1,2017-02-03T01:00:00Z,29.1870,-90.6093,0.0,4.1,146.0,-9999.0,'1111122,1111122,1111122' 
LUMCON,ioos:station:LUMCON:102:1,2017-02-03T01:15:00Z,29.1870,-90.6093,0.0,3.9,147.0,-9999.0,'1111122,1111122,1111122' 
LUMCON,ioos:station:LUMCON:102:1,2017-02-03T01:30:00Z,29.1870,-90.6093,0.0,3.7,147.0,-9999.0,'1111122,1111122,1111122' 